DW6536 Weather Reports


time (UTC)temp
C
wind
direction
speed
KPH
gust
KPH
rain 1hr
cm
rain 24hr
cm
rain mn
cm
humidity
%
barometer
mb
20260507150043 14 49 3.2 0.0 0.00 0.00 0.00 83 1017.5
20260507144543 14 4 3.2 0.0 0.00 0.00 0.00 83 1017.8
20260507143040 13 16 3.2 0.0 0.00 0.00 0.00 85 1017.0
20260507141542 13 358 3.2 0.0 0.00 0.00 0.00 86 1017.0
20260507140038 13 349 4.8 0.0 0.00 0.00 0.00 86 1017.0
20260507134539 13 23 1.6 0.0 0.00 0.00 0.00 87 1016.6
20260507133052 13 13 4.8 0.0 0.00 0.00 0.00 87 1016.5
20260507131545 13 343 4.8 0.0 0.00 0.00 0.00 87 1016.5
20260507130045 13 12 4.8 0.0 0.00 0.00 0.00 87 1016.6
20260507124533 13 18 4.8 0.0 0.00 0.00 0.00 87 1016.3
20260507123032 13 343 3.2 0.0 0.00 0.00 0.00 87 1016.5
20260507121531 13 294 4.8 0.0 0.00 0.00 0.00 87 1016.4
20260507120028 13 29 3.2 0.0 0.00 0.00 0.00 87 1015.5
20260507114526 13 6 3.2 0.0 0.00 0.00 0.00 87 1015.2
20260507113025 13 47 3.2 0.0 0.00 0.00 0.00 86 1015.4
20260507111525 13 31 4.8 0.0 0.00 0.00 0.00 86 1015.6
20260507110024 13 353 3.2 0.0 0.00 0.00 0.00 86 1015.4
20260507104522 13 33 4.8 0.0 0.00 0.00 0.00 85 1015.4
20260507103021 13 356 4.8 0.0 0.00 0.00 0.00 86 1015.2
20260507101521 13 24 4.8 0.0 0.00 0.00 0.00 86 1015.0
20260507100019 14 54 3.2 0.0 0.00 0.00 0.00 85 1014.9
20260507094518 14 69 3.2 0.0 0.00 0.00 0.00 85 1015.2
20260507093016 14 37 3.2 0.0 0.00 0.00 0.00 85 1014.7
20260507091520 14 17 1.6 0.0 0.00 0.00 0.00 85 1014.8
20260507090021 14 12 1.6 0.0 0.00 0.00 0.00 85 1014.1
20260507084512 14 58 1.6 0.0 0.00 0.00 0.00 84 1014.0
20260507083011 14 35 1.6 0.0 0.00 0.00 0.00 84 1013.8
20260507081508 14 40 1.6 0.0 0.00 0.00 0.00 84 1014.3
20260507080006 15 37 1.6 0.0 0.00 0.00 0.00 83 1013.8
20260507074505 15 53 3.2 0.0 0.00 0.00 0.00 83 1013.4
20260507073003 15 112 1.6 0.0 0.00 0.00 0.00 82 1013.6
20260507071502 15 74 3.2 0.0 0.00 0.00 0.00 82 1013.3
20260507070002 15 46 3.2 0.0 0.00 0.00 0.00 81 1013.4
20260507064603 15 25 1.6 0.0 0.00 0.00 0.00 81 1013.4
20260507063106 15 30 1.6 0.0 0.00 0.00 0.00 80 1013.2
20260507061558 15 36 3.2 0.0 0.00 0.00 0.00 80 1013.3
20260507060057 15 44 1.6 0.0 0.00 0.00 0.00 80 1013.7
20260507054554 15 62 3.2 0.0 0.00 0.00 0.00 80 1013.4
20260507053054 15 58 3.2 0.0 0.00 0.00 0.00 81 1013.1
20260507051554 15 26 3.2 0.0 0.00 0.00 0.00 80 1013.2
20260507050051 15 53 3.2 0.0 0.00 0.00 0.00 80 1013.4
20260507044550 16 31 3.2 0.0 0.00 0.00 0.00 80 1013.1
20260507043049 16 343 3.2 0.0 0.00 0.00 0.00 80 1013.3
20260507041551 16 37 3.2 0.0 0.00 0.00 0.00 80 1013.2
20260507040053 16 32 3.2 0.0 0.00 0.00 0.00 81 1013.4
20260507034551 16 22 1.6 0.0 0.00 0.00 0.00 82 1013.3
20260507033050 16 26 3.2 0.0 0.00 0.00 0.00 82 1013.1
20260507031545 15 37 1.6 0.0 0.00 0.00 0.00 82 1013.1
20260507030044 16 321 1.6 0.0 0.00 0.00 0.00 82 1012.6
20260507024543 16 37 3.2 0.0 0.00 0.00 0.00 81 1012.9
20260507023048 16 37 1.6 0.0 0.00 0.00 0.00 81 1012.6
20260507021545 16 27 3.2 0.0 0.00 0.00 0.00 81 1012.1
20260507020058 16 20 1.6 0.0 0.00 0.00 0.00 81 1012.3
20260507014536 16 347 3.2 0.0 0.00 0.00 0.00 81 1011.8
20260507013047 16 6 1.6 0.0 0.00 0.00 0.00 81 1011.6
20260507011534 16 47 3.2 0.0 0.00 0.00 0.00 80 1011.0
20260507010036 16 16 3.2 0.0 0.00 0.00 0.00 80 1011.1
20260507004536 16 22 3.2 0.0 0.00 0.00 0.00 80 1010.8
20260507003041 16 17 3.2 0.0 0.00 0.00 0.00 80 1010.7
20260507001537 16 353 3.2 0.0 0.00 0.00 0.00 80 1010.7
20260507000035 16 338 1.6 0.0 0.00 0.00 0.00 80 1010.7
20260506234536 16 4 1.6 0.0 0.00 0.00 0.00 80 1010.8
20260506233031 16 58 3.2 0.0 0.00 0.00 0.00 80 1010.2
20260506231530 16 314 3.2 0.0 0.00 0.00 0.00 80 1010.3
20260506230029 16 48 3.2 0.0 0.00 0.00 0.00 79 1010.2
20260506224533 16 4 3.2 0.0 0.00 0.00 0.00 81 1010.4
20260506223040 16 30 3.2 0.0 0.00 0.00 0.00 80 1010.3
20260506221528 16 338 4.8 0.0 0.00 0.00 0.00 80 1010.1
20260506220028 16 7 4.8 0.0 0.00 0.00 0.00 79 1010.3
20260506214537 16 303 4.8 0.0 0.00 0.00 0.00 79 1009.9
20260506213026 16 8 4.8 0.0 0.00 0.00 0.00 78 1009.9
20260506211526 16 53 4.8 0.0 0.00 0.00 0.00 78 1010.2
20260506210027 17 351 4.8 0.0 0.00 0.00 0.00 78 1010.3
20260506204526 17 77 4.8 0.0 0.00 0.00 0.00 77 1010.4
20260506203024 17 355 4.8 0.0 0.00 0.00 0.00 77 1010.4
20260506201524 18 6 4.8 0.0 0.00 0.00 0.00 76 1010.2
20260506200023 18 351 4.8 0.0 0.00 0.00 0.00 75 1010.1
20260506194522 18 289 4.8 0.0 0.00 0.00 0.00 76 1010.0
20260506193021 19 46 4.8 0.0 0.00 0.00 0.00 76 1009.9
20260506191521 20 42 4.8 0.0 0.00 0.00 0.00 77 1010.0
20260506190020 21 279 4.8 0.0 0.00 0.00 0.00 74 1010.0
20260506184537 22 11 3.2 0.0 0.00 0.00 0.00 75 1009.6
20260506183029 22 20 1.6 0.0 0.00 0.00 0.00 74 1009.5
20260506181525 22 133 3.2 0.0 0.00 0.00 0.00 77 1009.6
20260506180017 21 358 3.2 0.0 0.00 0.00 0.00 77 1009.4
20260506174523 21 56 3.2 0.0 0.00 0.00 0.00 78 1009.2
20260506173016 20 58 3.2 0.0 0.00 0.00 0.00 79 1009.1
20260506171518 18 96 3.2 0.0 0.00 0.00 0.00 82 1009.4
20260506170015 18 60 3.2 0.0 0.00 0.00 0.00 82 1009.5
20260506164514 17 80 3.2 0.0 0.00 0.00 0.00 86 1009.5
20260506163014 16 22 3.2 0.0 0.00 0.00 0.00 86 1010.5
20260506161516 16 67 4.8 0.0 0.00 0.00 0.00 88 1010.3
20260506160014 16 41 4.8 0.0 0.00 0.00 0.00 87 1011.4
20260506154507 17 66 4.8 0.0 0.00 0.00 0.00 87 1011.0
20260506153003 18 267 6.4 0.0 0.00 0.00 0.00 85 1010.5
20260506151600 18 347 4.8 0.0 0.00 0.00 0.00 84 1010.0